Showing default

GALAXY 14, 28790

Orbit data source: Space-Track

GALAXY 14, 28790 is a payload satellite owned by Panamsat (US) in GEO that was launched on Sat, 13 Aug 2005 UTC via a SOYUZ-FG launch vehicle from the Tyuratam Missile And Space Complex (TTMTR). Payload-class satellites include a variety of spacecraft equipped with specific instruments for various scientific and technological missions. These include communications satellites like Starlink; space stations such as the ISS; scientific satellites like the Hubble; Earth observation satellites from companies like Planet Labs, Umbra, and HawkEye 360; GPS; miniature CubeSats for education and research; and military/defense satellites.

Not visible in the next 10 days
Identifier
28790, 2005-030A
Orbit
GEO
Country
Flag of USUS
Related business
Manufacturer
OSC
Mission
Non-operational Commercial Communications
Bus & Motor
OSC STAR 2, IHI LAE
Mass
2,087 kg wet, ~850 kg dry
Launch date (UTC)
2005-08-13 (20 years ago)
Launch vehicle
SOYUZ-FG
Launch site
Tyuratam Missile And Space Complex (TTMTR)
Object type
Payload
Rocket body
Debris
Shape & HBR
Box + 2 Pan, 6.3 m
Radar Cross Section
13.542 m², Large (>1 m²)

Expand to show TLE details & history
Last TLE update: 11 hours ago

TLE from 11 hours ago
0 GALAXY 14
1 28790U 05030A   25340.84573859 -.00000201  00000-0  00000-0 0  9991
2 28790   4.5321  77.4149 0001629 248.5516 177.3327  0.98914452 74322
Epoch: 2025-12-06T20:17Z
TLE epoch observation values (Epoch: 2025-12-06T20:17:51.814Z)
Latitude
4.14985°
Longitude
122.89605°
Altitude
36,177.417 km
Speed
3.06 km/s
True Right ascension
09h 32m 55s
True Declination
4° 08' 45"
Sunlit
Object was in daylight at epoch
Visualization orbit readout
Latitude
Unknown
Longitude
Unknown
Altitude
Unknown
Speed
Unknown
Apparent Right ascension
Unknown
Apparent Declination
Unknown
Sunlit
N/A
Visualization observer readout
Local Sidereal Time
05:05:01
Azimuth
Unknown
Elevation
Unknown
Doppler factor
Unknown
Orbital elements
Apogee altitude
36,179.432 km
Perigee altitude
36,165.569 km
Semi-major axis
42,550.638 km
Eccentricity
0.00016
Inclination
4.5321°
RAAN
77.4149°
Arg. of periapsis
248.5516°
True anomaly
177.33357°
Mean anomaly
177.3327°
Eccentric anomaly
177.33313°
Mean motion
0.24728 °/min
Orbital period
1,455.86 mins
BSTAR
0
Loading maneuver chart data...
Computing Atmospheric mass density...
Loading historical data...
Loading historical data...
Loading historical data...
Loading historical data...
Loading historical data...
Loading historical data...
Loading historical data...
Other satellites on launch #30 in the year 2005 (2005-08-13 UTC)

Documentation

Showing up to 5 results
|